Other Public Products
Issued by NWS Grand Forks, ND

Home | Current Version | Previous Version | Text Only | Print | Product List | Glossary Off
Versions: 1 2 3 4 5 6 7 8 9 10 11 12 13 14 15 16 17 18 19 20 21 22 23 24 25 26 27 28 29 30 31 32 33 34 35 36 37 38 39 40 41 42 43 44 45 46 47 48 49 50

000
FPUS83 KFGF 250931
OPUFGF
PRAIRIE TO PINES WEATHER ROUNDUP
NATIONAL WEATHER SERVICE EASTERN NORTH DAKOTA/GRAND FORKS ND
400 AM CDT SAT OCT 25 2014

 **SATELLITE DATA USED TO AUGMENT SKY COVER AT AUTOMATED STATIONS**
 *****  WEATHER ACROSS EASTERN NORTH DAKOTA  *****

CITY           SKY/WX    TMP DP  RH WIND       PRES   REMARKS
GRAND FORKS    PTCLDY    44  34  67 W8        29.98R
GRAND FORKS AF PTCLDY    46  34  62 NW9       29.98R
GRAND CITY NWS   N/A     43 N/A N/A W9          N/A
BUXTON         NOT AVBL
DEVILS LAKE    PTCLDY    45  30  57 W12       30.01R
FARGO          PTCLDY    43  31  62 W9        30.01R
WAHPETON ARPT  PTSUNNY   45  32  61 W9        30.02S
$$

 *****  WEATHER ACROSS CENTRAL AND WESTERN NORTH DAKOTA  *****

CITY           SKY/WX    TMP DP  RH WIND       PRES   REMARKS
JAMESTOWN      CLEAR     41  33  73 W9        30.05R
BISMARCK       MOCLDY    46  32  58 NW5       30.10R
MINOT          MOCLDY    45  29  53 W12       30.05R
MINOT AFB      MOCLDY    40  31  72 W10       30.05R
GARRISON         N/A     41  31  67 W8        30.07R
WILLISTON      CLOUDY    43  30  60 SE5       30.09R
DICKINSON      CLOUDY    46  32  58 W6        30.09F
HETTINGER      MOCLDY    42  31  64 CALM      30.14R
$$

 *****  OTHER OBSERVATIONS NORTHEAST NORTH DAKOTA  *****

CITY           SKY/WX    TMP DP  RH WIND       PRES   REMARKS
WALHALLA       FAIR      45  32  61 W7        29.95S
LANGDON        FAIR      36  28  75 W10       29.97R
CAVALIER       FAIR      45  32  61 W10G16    29.95S
GRAFTON        FAIR      41  34  75 W9        29.96S
CANDO          FAIR      36  32  87 W12       30.02R
FORT TOTTEN      N/A     44  33  65 NW6       29.95S
ROLLA          FAIR      46  25  42 NW17G24   30.00R
RUGBY          FAIR      32  30  93 NW9       30.04R WCI  24
 ***** THE ABOVE OBSERVATIONS ARE NON NWS ARE NOT QUALITY
        CONTROLLED AND MAY MIS-REPORT RAIN FOR SNOW...
$$

 *****  OTHER OBSERVATIONS SOUTHEAST NORTH DAKOTA *****

CITY           SKY/WX    TMP DP  RH WIND       PRES   REMARKS
COOPERSTOWN    NOT AVBL
VALLEY CITY    FAIR      43  32  65 NW14      30.05R
OAKES            N/A     46  36  66 W5        30.07R
GWINNER        PTSUNNY   48  32  53 W8        30.06S
SHEYENNE NWR     N/A     36  31  83 W5        29.95S
BUFFALO        NOT AVBL
WYNDMERE         N/A     46  36  66 W7          N/A
 ***** THE ABOVE OBSERVATIONS ARE NON NWS ARE NOT QUALITY
       CONTROLLED AND MAY MIS-REPORT RAIN FOR SNOW...
$$

  *****  WEATHER ACROSS NORTHERN MINNESOTA  *****

CITY           SKY/WX    TMP DP  RH WIND       PRES   REMARKS
FLAG ISLAND    CLEAR     46  36  66 NW23G30   29.82R
WARROAD        CLEAR     46  34  61 W9G16     29.87R
ROSEAU         CLEAR     45  34  65 W9        29.89R
HALLOCK        CLEAR     41  32  70 W9        29.93R
THF RVR FALLS  CLEAR     43  30  61 W7        29.95S
HALSTAD          N/A     45  32  60 W10         N/A
FOSSTON        CLEAR     37  30  75 W6        29.97S
BAUDETTE       CLEAR     46  32  58 VRB7      29.84R
WASKISH        CLEAR     46  37  71 W13G18    29.89R
CROOKSTON      CLEAR     45  34  65 W9        29.98S
$$
  *****  WEATHER ACROSS CENTRAL AND WEST MINNESOTA  *****

CITY           SKY/WX    TMP DP  RH WIND       PRES   REMARKS
BEMIDJI        CLEAR     45  32  60 W14       29.93R
PARK RAPIDS    CLEAR     46  32  58 NW13      29.94R
WADENA         CLEAR     48  34  57 NW8       29.98R
DETROIT LAKES  CLEAR     46  32  57 NW13      30.00S
MOORHEAD       PTCLDY    48  34  57 NW9       30.03R
FERGUS FALLS   CLEAR     43  28  56 W6        30.03S
ELBOW LAKE     FAIR      44  34  67 NW7       30.02S
MORRIS MN      PTCLDY    52  36  54 NW9       30.02R
STAPLES        CLEAR     45  34  65 W8        29.97R
WHEATON        MOCLDY    50  36  57 W8        30.05S
$$
  *****  WEATHER ELSEWHERE ACROSS MINNESOTA  *****

CITY           SKY/WX    TMP DP  RH WIND       PRES   REMARKS
DULUTH         CLEAR     52  34  50 W15G23    29.82R
INTRNTL FALLS  CLEAR     47  33  58 W13G21    29.80R
ELY            CLEAR     48  30  49 W16G26    29.76S
CLOQUET        CLEAR     52  32  46 W12G17    29.85S
BRAINERD       CLEAR     51  33  50 W9        29.94R
HIBBING        CLEAR     52  31  44 NW14G21   29.82R
ALEXANDRIA     CLEAR     47  34  60 W8        30.01R
SAINT CLOUD    PTCLDY    56  34  43 W10       29.96S
MINNEAPOLIS    PTCLDY    58  36  43 NW12      29.95R
$$

  *****  WEATHER ACROSS SOUTH DAKOTA  *****

CITY           SKY/WX    TMP DP  RH WIND       PRES   REMARKS
SIOUX FALLS    PTCLDY    46  41  82 NW3       30.06R
BROOKINGS      NOT AVBL
WATERTOWN      CLOUDY    53  36  52 NW8       30.07R
HURON          CLOUDY    48  39  71 N6        30.08S
SISSETON         N/A     56  33  42 NW9       30.04S
ABERDEEN       CLOUDY    54  34  46 NW10      30.08R
MITCHELL       PTCLDY    49  40  71 W6        30.09R
PIERRE         PTCLDY    47  37  68 NW10      30.11R
MOBRIDGE       MOCLDY    51  39  63 N5        30.08S
RAPID CITY     CLEAR     44  32  62 NW9       30.16R
$$

  *****  SOME WEATHER IN NEARBY STATES *****

CITY           SKY/WX    TMP DP  RH WIND       PRES   REMARKS
GLASGOW MT     CLOUDY    44  31  60 S3        30.09S
GREAT FALLS MT MOCLDY    44  40  85 SE7       30.03F
CHEYENNE WY    CLEAR     50  22  33 NW7       30.25S
SCOTTSBLUFF NE CLEAR     40  32  73 N6        30.14S
OMAHA NE       CLEAR     49  48  97 NW3       30.03S
DES MOINES IA  CLEAR     53  50  89 N6        29.99F
DAVENPORT IA   FOG       54  53  97 W7        29.95F VSB 1/4
CHICAGO IL     CLOUDY    57  52  83 W9        29.90R
EAU CLAIRE WI  CLEAR     47  43  86 SW5       29.89S
LA CROSSE WI   FOG       48  47  96 CALM      29.92R VSB 1/4
$$

  *****  SOME NATIONAL WEATHER *****

CITY           SKY/WX    TMP DP  RH WIND       PRES   REMARKS
LA GUARDIA NY  MOCLDY    54  39  57 NW14      29.85S
RALEIGH NC     PTCLDY    43  41  93 CALM      29.97S
ATLANTA GA     CLEAR     51  43  74 NW12      30.02S
NEW ORLEANS LA CLEAR     61  52  72 N10       30.09S
OKLAHOMA CITY  CLEAR     61  58  90 S7        30.06S
ALBUQUERQUE NM CLEAR     58  35  42 CALM      30.29S
SALT LAKE CITY CLEAR     64  26  23 S18       30.09R
LOS ANGELES CA PTCLDY    65  64  96 W3        30.01F
BOISE ID       FOG       45  45 100 CALM      29.88F VSB 1/4
SEATTLE WA     CLOUDY    50  48  93 NW8       29.67F
$$

*** WEATHER ACROSS MANITOBA...SASKATCHEWAN AND ONTARIO ***
                ***ONTARIO***

CITY           SKY/WX    TMP DP  RH WIND       PRES   REMARKS
GERALDTON      PTCLDY    46  41  81 W6        29.46S
THUNDER BAY    CLEAR     54  36  50 W15G23    29.61S
SIOUX LOOKOUT  CLOUDY    46  36  66 NW18G33   29.66R
TORONTO        MOCLDY    48  43  81 SW8       29.83F
BIG TROUT LK   LGT RAIN  45  43  93 W17G28    29.26R
PICKLE LAKE    NOT AVBL
DRYDEN         CLOUDY    46  32  57 W17G28    29.71R
KENORA         MOCLDY    46  34  61 NW17      29.78R
$$
                *** MANITOBA***

CITY           SKY/WX    TMP DP  RH WIND       PRES   REMARKS
BRANDON        CLEAR     37  30  75 W16       29.97R
DAUPHIN        CLEAR     41  30  65 W12       29.91R
ISLAND LAKE    LGT RAIN  43  36  75 W23G31    29.55R
PILOT MOUND      N/A     43  30  61 W9          N/A
THE PAS        CLOUDY    39  30  70 W21G30    29.77R
THOMPSON       CLOUDY    36  32  87 W15G23    29.57
WINNIPEG       CLEAR     41  30  65 W13       29.89R
LYNN LAKE      LGT SNOW  30  28  93 W14G24    29.61R WCI  20
CHURCHILL      FOG       37  37 100 NW3       29.36R VSB 1/2
GILLAM         LGT RAIN  41  39  93 W16G24    29.44R
$$
                ***SASKATCHEWAN***

CITY           SKY/WX    TMP DP  RH WIND       PRES   REMARKS
ESTEVAN        PTCLDY    32  28  86 W8        30.07R WCI  25
KINDERSLEY     CLEAR     30  25  80 S6        30.03S WCI  24
LLOYDMINSTER   CLEAR     32  23  69 W13       29.99R WCI  22
PRINCE ALBERT  PTCLDY    37  27  65 W10       29.92R
REGINA         CLEAR     30  27  86 W5        30.06R



USA.gov is the U.S. government's official web portal to all federal, state and local government web resources and services.